Location: Lafig�re
(44.4503°N, 4.0357°E)
Time: 15:20:35
(UTC+00:00)

CENTAUR R/B - Pass Details

Date: 24 September 2020
Orbit: 755 x 1433 km, 63.4° (Epoch: 02 October)

Event Time Altitude Azimuth Distance (km) Brightness Sun altitude
Rises 18:15:23 0° 322° (NW) 4,105 6.5 -7.7°
Reaches altitude 10° 18:18:05 10° 327° (NNW) 3,225 5.8 -8.2°
Maximum altitude 18:25:57 58° 46° (NE) 1,561 3.4 -9.6°
Drops below altitude 10° 18:34:36 10° 124° (SE) 3,527 4.8 -11.1°
Enters shadow 18:34:47 - 125° (SE) 3,585 4.9 -11.1°
